Weather History for Farmingdale, NY

Change the Weather History Date:

Friday, March 29, 2013

  Actual Average Record
Temperature  
Mean Temperature 46 °F -  
Max Temperature 55 °F 50 °F 82 °F (1998)
Min Temperature 39 °F 35 °F 30 °F (2001)
Degree Days  
Heating Degree Days 18    
Moisture  
Dew Point 26 °F    
Average Humidity 46    
Maximum Humidity 60    
Minimum Humidity 31    
Precipitation  
Precipitation 0.00 in - - ()
Sea Level Pressure  
Sea Level Pressure 30.10 in    
Wind  
Wind Speed 8 mph (NW)    
Max Wind Speed 13 mph    
Max Gust Speed 20 mph    
Visibility 10 miles    
Events      
Averages and records for this station are not official NWS values.
T = Trace of Precipitation, MM = Missing Value Source: NWS Daily Summary

Daily Weather History Graph

Daily Weather History Graph

Search for Another Location

Airport:

Trip Planner

Search our weather history database for the weather conditions in past years. The results will help you decide how hot, cold, wet, or windy it might be!

Date:

Astronomy

Mar. 29, 2013 Rise Set
Actual Time 6:41 AM EDT 7:15 PM EDT
Civil Twilight 6:14 AM EDT 7:43 PM EDT
Nautical Twilight 5:41 AM EDT 8:15 PM EDT
Astronomical Twilight 5:08 AM EDT 8:49 PM EDT
Moon 10:13 PM EDT (3/29) 7:47 AM EDT (3/29)
Length of Visible Light 13h 28m
Length of Day
12h 33m
Waning Gibbous, 93% of the Moon is Illuminated
Mar 29
Waning Gibbous
Apr 3
Last Quarter
Apr 10
New
Apr 18
First Quarter
Apr 25
Full

Hourly Weather History & Observations

Time (EDT) Temp. Windchill Dew Point Humidity Pressure Visibility Wind Dir Wind Speed Gust Speed Precip Events Conditions
12:53 AM 44.1 °F 39.0 °F 28.9 °F 55% 30.10 in 10.0 mi NNW 9.2 mph - N/A   Overcast
1:53 AM 44.1 °F 40.1 °F 28.9 °F 55% 30.10 in 10.0 mi NNW 6.9 mph - N/A   Overcast
2:53 AM 44.1 °F 39.0 °F 28.9 °F 55% 30.10 in 10.0 mi NW 9.2 mph - N/A   Overcast
3:53 AM 43.0 °F 37.7 °F 28.0 °F 56% 30.10 in 10.0 mi NW 9.2 mph - N/A   Overcast
4:53 AM 42.1 °F 38.4 °F 28.0 °F 58% 30.11 in 10.0 mi NW 5.8 mph - N/A   Clear
5:53 AM 41.0 °F 36.4 °F 28.0 °F 60% 30.11 in 10.0 mi NW 6.9 mph - N/A   Overcast
6:53 AM 39.9 °F 35.1 °F 27.0 °F 60% 30.12 in 10.0 mi NNW 6.9 mph - N/A   Clear
7:53 AM 42.1 °F 38.4 °F 27.0 °F 55% 30.13 in 10.0 mi NW 5.8 mph - N/A   Clear
8:53 AM 45.0 °F 40.6 °F 28.0 °F 52% 30.13 in 10.0 mi NNW 8.1 mph - N/A   Clear
9:53 AM 48.0 °F - 28.0 °F 46% 30.13 in 10.0 mi NW 6.9 mph - N/A   Clear
10:53 AM 50.0 °F - 28.0 °F 43% 30.13 in 10.0 mi NNW 6.9 mph - N/A   Clear
11:53 AM 52.0 °F - 27.0 °F 38% 30.12 in 10.0 mi North 6.9 mph - N/A   Clear
12:53 PM 52.0 °F - 25.0 °F 35% 30.10 in 10.0 mi West 5.8 mph 19.6 mph N/A   Scattered Clouds
1:53 PM 54.0 °F - 25.0 °F 33% 30.08 in 10.0 mi West 9.2 mph - N/A   Overcast
2:53 PM 54.0 °F - 24.1 °F 31% 30.06 in 10.0 mi West 12.7 mph - N/A   Scattered Clouds
3:53 PM 53.1 °F - 23.0 °F 31% 30.04 in 10.0 mi WNW 12.7 mph 18.4 mph N/A   Overcast
4:53 PM 53.1 °F - 24.1 °F 32% 30.04 in 10.0 mi NW 6.9 mph 16.1 mph N/A   Overcast
5:53 PM 52.0 °F - 23.0 °F 32% 30.06 in 10.0 mi NNW 11.5 mph - N/A   Overcast
6:53 PM 50.0 °F - 25.0 °F 38% 30.07 in 10.0 mi NW 10.4 mph 19.6 mph N/A   Mostly Cloudy
7:53 PM 48.0 °F - 26.1 °F 42% 30.08 in 10.0 mi NW 6.9 mph - N/A   Clear
8:53 PM 46.0 °F 40.6 °F 25.0 °F 44% 30.10 in 10.0 mi NW 11.5 mph - N/A   Clear
9:53 PM 45.0 °F 41.8 °F 26.1 °F 48% 30.12 in 10.0 mi NW 5.8 mph - N/A   Clear
10:53 PM 44.1 °F 41.5 °F 27.0 °F 51% 30.12 in 10.0 mi NW 4.6 mph - N/A   Clear
11:53 PM 44.1 °F 39.0 °F 26.1 °F 49% 30.12 in 10.0 mi NW 9.2 mph - N/A   Clear